sat.trackr.live / text

‹ back to catalog

NAVSTAR 52 (USA 168)

NORAD 27704 · 2003-010A

PAYLOAD ACTIVE UNKNOWN

§ Identity

Operator
Country
US
Launch date
2003-03-31
Launch site
AFETR
Launch vehicle
Mass (kg)
RCS (m²)
4.02

External: N2YO · Heavens-Above · Gunter

§ Orbital elements

Epoch: 2026-09-19T06:07:15.183840Z

Period
752.13 min
Inclination
54.7489°
Eccentricity
0.0006739
Mean motion
1.91455025 rev/d
Perigee alt
20,999.6 km
Apogee alt
21,036.5 km
Semi-major
27,396.2 km
B*
0.0000e+0
RAAN
321.7127°
Arg perigee
254.0312°
Mean anomaly
105.8607°
Rev number
17,172

§ Raw data

NAVSTAR 52 (USA 168)1 27704U 03010A   26262.25503685 -.00000078  00000+0  00000+0 0  99902 27704  54.7489 321.7127 0006739 254.0312 105.8607  1.91455025171721

JSON: /api/v1/satellites/27704 · /tle

For live sub-satellite position, see the globe view (requires WebGL).

§ Visibility from observer

Set your observer location to see the next 7 days of passes ≥ 10°. The values pass through the URL so the page stays shareable.

No JS? Fill the form by hand. The geolocation button needs JavaScript.